Wind_Speed
6 4 8 2 7 12 10 16 16 15 21 16 13 13 8 4 4 4 8 8 5 11 12 16 14 17 10 8 9 7 4 12 17 14 17 23 24 23 22 23 25 21 30 35
11 9 4 10 9 19 19 12 15 17 21 15 16 11 9 8 4 5 7 7 7 11 17 19 16 19 9 5 10 3 8 13 16 16 16 20 20 17 23 28 31 27 32 31
14 11 10 15 9 14 4 15 23 22 21 21 19 13 12 6 6 7 3 6 10 14 15 21 22 10 14 5 5 4 10 14 13 11 12 14 17 22 25 28 30 19 25 29
10 7 13 17 16 13 21 17 20 26 22 20 14 8 12 6 6 4 4 9 6 12 15 20 23 9 14 5 2 5 8 11 12 13 11 12 18 20 27 31 24 24 24 27
21 16 21 20 24 27 27 26 23 21 21 21 13 7 9 10 9 7 8 5 7 12 15 19 16 20 8 2 4 6 8 12 12 12 14 21 20 22 30 31 26 28 27 27
26 25 26 25 28 23 12 17 14 16 16 6 9 8 9 13 9 8 6 7 10 11 13 16 14 17 16 7 9 11 14 16 12 14 19 20 20 25 24 21 22 26 27 33
23 24 25 23 13 11 10 11 5 6 4 8 9 9 15 11 14 13 7 9 8 9 14 15 20 20 15 12 14 15 16 11 16 16 15 17 15 16 18 22 25 30 31 34
9 11 8 9 13 10 9 13 8 6 5 6 10 9 11 13 17 14 10 5 6 10 15 19 21 17 14 13 11 9 9 11 8 10 12 14 17 20 23 26 31 35 38 37
4 4 7 6 8 12 13 14 15 6 5 2 7 14 19 19 15 17 14 12 8 10 18 20 18 17 12 9 8 5 8 10 10 13 17 20 22 24 27 30 32 32 33 34
7 5 8 8 9 14 14 14 8 7 3 4 5 10 17 13 12 12 14 14 9 14 18 22 18 15 11 12 11 10 13 15 16 17 21 25 25 26 27 29 30 29 32 34
13 12 11 16 14 16 14 16 18 11 5 4 2 9 18 20 21 17 15 12 13 18 21 24 18 17 15 15 17 19 19 19 21 24 26 25 25 26 27 27 29 30 31 31
15 14 12 16 20 15 16 13 12 5 6 7 6 22 23 11 15 17 14 13 15 17 22 23 19 19 18 20 22 23 21 22 25 26 26 26 26 26 27 28 27 28 31 30
13 11 11 11 13 13 16 14 14 16 19 19 7 11 11 12 16 19 18 15 15 19 25 22 17 20 20 22 25 25 25 26 27 28 27 26 25 25 26 26 26 30 32 29
22 23 23 23 20 14 18 19 19 20 15 13 20 23 19 20 19 20 20 16 16 23 27 23 17 20 23 26 27 27 27 28 28 29 27 26 26 24 25 25 26 29 30 29
19 19 19 19 19 21 22 20 15 21 23 16 21 20 19 16 20 21 19 15 19 24 27 21 20 20 24 28 28 27 28 29 28 27 25 23 25 22 23 23 24 26 28 27
14 15 18 21 21 20 20 19 16 17 17 22 23 27 21 13 20 22 16 15 20 22 20 17 18 21 24 28 31 28 29 28 26 24 23 22 24 22 22 21 22 23 25 26
12 14 14 18 15 13 8 7 9 15 15 13 21 9 7 6 12 12 12 16 19 21 22 20 21 24 26 30 35 27 28 25 23 22 22 22 23 23 22 22 21 21 23 22
13 12 10 11 14 3 4 7 8 4 5 3 9 7 4 6 10 12 14 17 22 23 21 22 24 26 30 36 30 26 25 23 21 20 20 22 23 22 21 22 21 22 23 23
19 8 5 4 8 10 1 5 2 7 6 10 19 11 10 15 14 14 16 22 22 21 20 21 25 30 31 28 23 20 20 20 20 20 20 21 22 22 21 21 22 21 22 24
18 9 4 5 4 4 8 7 12 3 5 10 1 6 8 9 11 15 19 17 16 17 21 26 28 27 26 14 13 14 18 19 21 21 20 21 22 23 22 22 22 21 21 23
12 8 4 6 1 2 9 9 3 4 3 3 1 5 11 15 14 17 19 16 17 20 19 19 22 21 12 15 16 18 22 23 22 23 22 22 22 23 23 23 23 21 20 22
8 7 5 4 2 3 6 5 5 4 5 5 10 13 15 17 18 18 17 16 14 13 15 16 19 19 19 21 23 25 27 25 26 25 23 25 26 23 23 23 24 23 21 20
4 6 5 3 5 4 3 6 6 5 6 12 12 12 12 12 10 14 16 17 19 16 19 19 19 21 21 25 26 29 26 29 26 28 24 25 27 25 26 25 24 25 24 21
6 6 5 6 3 6 1 1 5 5 12 16 12 10 12 14 16 15 19 21 19 18 20 20 20 28 31 21 31 31 21 27 30 31 29 26 28 28 26 26 24 25 25 23
7 7 6 5 7 7 6 5 7 7 6 11 15 14 15 17 18 19 24 22 16 26 21 24 25 23 23 27 27 32 19 25 27 29 28 25 26 27 29 29 28 27 26 26
6 6 3 5 8 10 13 11 16 20 12 14 14 12 22 23 23 16 15 19 22 27 27 29 28 32 27 32 32 29 27 27 27 27 24 19 19 27 30 33 30 29 28 28
Wind_Direction
276 292 324 299 337 339 328 317 327 318 335 338 309 296 289 248 277 200 256 257 31 50 23 351 354 342 10 8 336 269 8 341 338 313 285 274 284 286 279 301 296 299 274 273
276 287 288 314 314 313 292 296 296 326 315 326 323 278 255 268 299 196 229 267 3 17 9 11 355 344 354 2 343 264 324 328 322 319 294 282 285 287 278 295 295 291 269 269
256 268 295 286 314 340 314 290 296 290 297 296 297 243 267 278 173 190 215 323 338 354 350 358 356 353 1 353 308 354 331 325 311 314 304 293 294 289 287 284 297 284 283 278
269 272 266 285 258 315 299 304 307 303 293 302 282 263 256 218 179 181 247 314 332 344 338 351 358 11 357 355 4 2 335 314 306 313 311 290 299 292 286 305 296 296 289 286
271 281 282 280 285 299 294 305 305 311 298 303 266 245 241 212 203 228 279 307 318 334 339 341 353 343 2 333 321 310 309 316 304 302 293 303 302 288 298 301 298 295 291 292
275 271 278 285 292 288 287 296 296 311 305 261 264 250 262 253 221 221 257 298 292 315 328 340 345 339 331 319 305 304 299 304 288 297 299 305 305 297 303 309 310 307 288 285
275 271 286 281 263 282 263 258 291 271 258 234 231 255 260 263 236 240 259 277 259 302 321 331 336 337 326 312 294 286 296 290 291 304 307 300 302 309 318 317 309 304 296 290
296 296 282 269 298 288 271 254 227 227 210 235 227 245 272 232 249 238 253 254 256 299 318 326 331 335 325 313 297 297 287 306 320 328 321 319 319 328 322 316 310 304 310 307
274 244 271 299 301 298 283 253 263 251 238 263 234 259 265 254 255 243 260 241 257 300 325 324 326 324 327 352 357 355 347 350 345 336 333 332 335 326 320 316 318 315 316 313
296 260 281 290 305 299 285 277 248 242 174 256 271 265 253 255 266 262 239 245 273 312 315 322 327 338 353 6 12 360 1 353 343 337 342 342 331 320 320 322 323 316 318 323
283 279 277 294 292 303 297 263 266 267 232 199 273 266 298 292 274 264 241 262 293 300 316 323 331 344 357 358 5 359 357 348 344 343 339 331 323 322 325 321 322 324 327 331
270 278 273 303 303 295 273 269 270 243 281 249 263 281 293 268 250 249 258 276 289 303 313 322 336 347 353 352 357 352 346 344 339 333 327 327 325 325 318 324 330 334 340 340
295 290 287 289 295 253 250 269 261 257 260 262 234 272 288 264 258 252 259 276 291 303 310 321 333 349 352 348 344 341 340 338 329 324 321 326 325 323 319 328 339 348 346 346
285 282 277 270 280 255 261 275 274 273 247 256 264 283 279 278 259 251 262 277 297 303 311 319 329 344 352 345 335 331 330 324 323 322 321 325 324 321 322 333 350 351 350 351
270 272 270 276 279 272 274 271 254 263 256 268 291 286 296 280 264 252 262 280 301 311 317 318 320 328 342 340 332 324 320 318 320 320 316 319 318 317 322 338 348 351 352 351
275 267 279 276 277 272 267 273 265 259 251 263 282 292 283 249 237 247 267 291 306 314 323 325 329 330 323 326 328 316 313 313 316 317 313 314 316 317 322 337 341 348 349 352
293 292 294 283 280 296 269 261 258 238 261 261 260 283 224 265 263 262 276 289 302 309 318 319 312 307 309 314 316 308 308 310 314 311 312 313 317 314 321 330 338 342 343 346
339 309 287 291 298 253 296 334 246 217 223 265 199 231 287 243 248 246 266 291 314 310 304 295 294 300 304 307 304 303 306 309 312 311 316 317 314 313 319 326 333 337 337 337
351 332 297 310 311 296 296 335 320 248 250 246 255 252 195 217 242 261 299 316 308 288 282 288 298 306 310 307 305 310 308 313 320 320 317 316 314 316 319 324 327 332 332 330
356 6 285 318 340 340 360 353 279 241 45 65 16 192 217 249 275 293 308 323 310 287 290 296 309 317 317 312 307 317 328 326 328 325 318 312 312 314 319 320 320 324 328 326
360 1 325 308 7 293 353 334 45 32 127 80 299 295 299 315 315 326 331 327 309 303 311 327 325 316 322 349 351 346 348 343 336 335 329 323 311 311 313 316 315 317 320 322
4 356 359 326 298 359 40 41 14 348 312 319 326 324 324 320 322 321 325 335 338 339 346 329 331 343 339 336 334 340 337 332 330 329 331 332 328 312 309 313 312 311 311 314
339 337 308 307 322 122 95 40 17 331 306 338 337 329 322 322 339 353 352 345 338 334 330 331 319 320 327 329 316 316 329 330 321 323 319 325 329 322 314 308 308 307 305 305
317 333 302 275 288 166 126 168 357 308 340 319 322 330 330 333 325 321 326 317 313 311 325 312 313 319 298 312 313 303 299 315 314 313 317 315 319 325 318 317 306 304 302 299
307 315 338 257 268 177 167 212 236 290 309 310 316 305 303 293 295 298 315 315 308 287 299 297 294 295 299 297 291 286 306 292 292 293 296 307 316 317 320 315 310 302 298 297
281 324 181 173 168 205 207 219 302 319 277 292 293 289 308 318 303 323 302 304 297 306 311 311 302 297 296 296 285 291 290 290 291 294 293 290 295 306 312 312 307 301 296 291
Height
3187 3187 3187 3187 3187 3186 3184 3183 3181 3179 3178 3177 3175 3174 3173 3173 3172 3171 3169 3167 3166 3165 3163 3157 3153 3149 3148 3147 3148 3150 3150 3148 3146 3146 3143 3143 3146 3145 3144 3146 3142 3136 3133 3129
3186 3185 3186 3185 3184 3183 3182 3181 3178 3177 3175 3176 3174 3172 3171 3170 3169 3168 3166 3165 3164 3162 3161 3156 3151 3147 3145 3146 3147 3148 3147 3145 3144 3142 3141 3143 3143 3142 3142 3140 3137 3131 3127 3124
3183 3184 3183 3182 3183 3180 3178 3179 3177 3177 3176 3174 3171 3170 3169 3168 3166 3164 3163 3162 3162 3159 3158 3155 3151 3148 3146 3145 3146 3146 3145 3144 3143 3142 3141 3141 3140 3139 3137 3133 3131 3126 3123 3119
3182 3180 3180 3180 3180 3179 3177 3177 3175 3173 3172 3170 3169 3166 3165 3164 3163 3163 3160 3159 3158 3156 3154 3152 3150 3147 3145 3145 3143 3143 3143 3142 3141 3139 3138 3137 3136 3133 3131 3127 3123 3120 3116 3113
3177 3177 3176 3176 3175 3175 3174 3172 3171 3168 3167 3166 3165 3164 3160 3161 3161 3160 3155 3155 3155 3153 3152 3150 3148 3147 3145 3143 3143 3142 3141 3139 3138 3136 3135 3133 3130 3128 3125 3121 3117 3114 3110 3106
3172 3174 3174 3172 3172 3170 3169 3167 3167 3166 3165 3164 3161 3160 3157 3156 3156 3155 3153 3152 3151 3150 3150 3148 3146 3144 3143 3142 3140 3138 3137 3136 3135 3133 3131 3129 3126 3124 3120 3116 3112 3107 3103 3098
3168 3168 3169 3168 3167 3165 3165 3163 3163 3164 3162 3159 3157 3156 3151 3151 3149 3150 3150 3148 3149 3149 3148 3147 3145 3142 3141 3140 3139 3137 3134 3132 3130 3128 3126 3124 3121 3119 3115 3110 3106 3100 3095 3090
3165 3166 3166 3165 3164 3163 3161 3160 3160 3161 3160 3154 3153 3149 3146 3147 3145 3147 3146 3147 3147 3148 3147 3145 3143 3141 3139 3138 3136 3133 3131 3129 3126 3124 3122 3120 3116 3112 3109 3104 3098 3093 3088 3081
3164 3163 3163 3162 3162 3161 3160 3158 3156 3152 3153 3153 3146 3143 3144 3142 3142 3143 3143 3145 3147 3146 3144 3143 3141 3139 3138 3135 3133 3131 3128 3125 3123 3120 3118 3114 3111 3108 3102 3097 3093 3087 3080 3074
3160 3160 3160 3159 3158 3156 3155 3154 3153 3151 3153 3152 3143 3140 3138 3138 3138 3139 3139 3142 3145 3144 3143 3141 3139 3137 3136 3133 3131 3129 3125 3122 3120 3117 3114 3110 3107 3103 3098 3093 3088 3082 3075 3067
3157 3157 3157 3155 3154 3153 3151 3149 3149 3149 3148 3145 3145 3137 3137 3136 3136 3136 3138 3140 3141 3141 3140 3137 3135 3134 3131 3130 3127 3124 3122 3120 3117 3113 3111 3109 3105 3100 3094 3090 3084 3078 3070 3063
3155 3153 3151 3150 3148 3146 3145 3144 3145 3145 3146 3143 3141 3134 3133 3133 3134 3134 3136 3137 3139 3138 3136 3134 3132 3130 3127 3125 3123 3122 3119 3116 3114 3112 3109 3105 3101 3096 3091 3086 3081 3073 3065 3057
3152 3150 3147 3144 3145 3142 3141 3141 3141 3139 3141 3139 3140 3133 3131 3131 3131 3132 3133 3134 3135 3135 3134 3132 3130 3128 3125 3123 3121 3119 3116 3113 3111 3109 3106 3102 3097 3092 3088 3084 3077 3068 3061 3053
3147 3145 3144 3141 3139 3138 3136 3136 3135 3136 3134 3131 3130 3129 3130 3129 3128 3129 3131 3132 3132 3132 3130 3127 3126 3125 3122 3121 3118 3116 3113 3111 3108 3104 3100 3096 3093 3089 3085 3080 3072 3065 3059 3052
3140 3137 3136 3134 3132 3130 3129 3129 3129 3129 3129 3127 3126 3126 3126 3126 3126 3128 3130 3130 3130 3129 3126 3124 3123 3122 3120 3118 3116 3113 3111 3107 3103 3101 3098 3095 3091 3087 3082 3077 3070 3064 3058 3052
3136 3134 3131 3128 3127 3126 3125 3125 3124 3125 3124 3122 3122 3121 3122 3124 3126 3126 3128 3129 3128 3126 3124 3123 3122 3121 3119 3117 3114 3111 3108 3104 3100 3098 3096 3093 3088 3084 3079 3073 3068 3063 3057 3052
3134 3132 3130 3125 3124 3123 3122 3120 3118 3119 3119 3120 3121 3122 3122 3125 3125 3127 3128 3127 3127 3125 3123 3122 3121 3120 3118 3115 3112 3108 3104 3100 3097 3095 3093 3090 3085 3081 3076 3071 3066 3062 3056 3052
3131 3129 3128 3125 3123 3122 3120 3119 3118 3119 3119 3119 3120 3121 3123 3123 3126 3126 3125 3125 3124 3122 3120 3120 3119 3118 3115 3112 3107 3103 3100 3097 3094 3091 3088 3085 3082 3077 3073 3068 3063 3059 3055 3050
3130 3127 3127 3126 3124 3121 3121 3119 3117 3116 3118 3118 3119 3120 3120 3124 3125 3125 3124 3123 3121 3120 3119 3119 3116 3113 3110 3106 3103 3100 3097 3093 3089 3086 3084 3082 3079 3075 3070 3065 3061 3057 3053 3049
3130 3129 3128 3125 3125 3123 3122 3119 3118 3117 3118 3118 3120 3122 3124 3126 3125 3124 3122 3119 3118 3118 3117 3115 3112 3108 3104 3102 3100 3098 3094 3090 3086 3083 3080 3078 3075 3071 3066 3062 3058 3055 3051 3047
3130 3129 3128 3126 3126 3123 3121 3118 3117 3120 3127 3123 3124 3123 3123 3122 3123 3121 3117 3116 3116 3115 3113 3110 3108 3104 3102 3100 3097 3095 3091 3087 3083 3080 3077 3074 3071 3067 3063 3059 3055 3052 3048 3045
3131 3129 3128 3127 3126 3126 3124 3123 3123 3124 3123 3124 3124 3122 3121 3120 3118 3116 3115 3113 3112 3110 3109 3107 3105 3102 3099 3096 3093 3090 3087 3084 3080 3076 3073 3070 3066 3063 3059 3056 3052 3048 3045 3042
3132 3131 3130 3129 3128 3126 3126 3126 3125 3125 3124 3124 3122 3120 3118 3117 3116 3115 3113 3111 3109 3107 3106 3103 3100 3098 3096 3093 3088 3084 3082 3079 3075 3072 3069 3065 3061 3057 3054 3050 3047 3044 3041 3038
3130 3129 3128 3127 3126 3125 3126 3126 3126 3124 3124 3122 3120 3118 3117 3116 3114 3113 3111 3109 3106 3104 3101 3100 3096 3092 3088 3085 3084 3078 3072 3073 3069 3066 3063 3059 3056 3052 3049 3045 3042 3039 3036 3034
3130 3128 3126 3124 3124 3125 3126 3124 3123 3121 3122 3120 3118 3116 3113 3111 3110 3108 3106 3104 3102 3098 3092 3092 3087 3085 3080 3075 3071 3065 3064 3062 3060 3056 3054 3051 3050 3046 3043 3040 3037 3034 3032 3029
3127 3126 3124 3123 3123 3124 3124 3123 3123 3121 3119 3118 3117 3113 3111 3107 3106 3103 3101 3099 3095 3092 3088 3086 3082 3078 3074 3070 3065 3061 3059 3055 3051 3048 3046 3043 3039 3039 3037 3033 3031 3029 3026 3023